Theta_e
309 310 312 311 310 308 308 307 305 304 303 304 305 305 305 306 307 306 312 324 320 316 318 320 321 320 320 319 314 323 317 317 316 309 307 307 306 310 310 313 310 311 304 300 308 303 299 317 315 310 321 326 318 321
309 310 310 310 309 307 307 306 305 304 302 302 303 304 305 305 307 306 311 321 320 313 314 321 320 323 321 320 319 327 321 322 322 314 312 312 309 314 314 305 315 306 314 310 310 306 321 318 323 325 325 322 322 323
310 310 310 309 308 307 306 306 304 303 302 301 301 303 304 304 306 305 309 313 316 310 310 311 311 320 322 322 325 318 321 326 330 333 318 316 312 313 307 307 310 314 319 311 313 312 314 316 318 318 322 322 325 325
309 310 310 308 307 306 306 305 304 303 302 300 300 302 304 304 305 304 310 315 314 314 306 309 321 318 322 323 323 324 323 330 332 322 316 313 308 317 309 311 310 313 315 313 311 314 314 316 319 321 324 324 321 323
308 309 309 308 307 306 306 305 304 303 302 300 300 302 303 304 305 305 308 311 316 314 309 309 315 315 317 321 322 322 324 325 317 313 311 309 313 316 315 315 310 314 315 308 308 318 316 316 319 323 320 320 322 322
308 308 308 307 307 306 305 305 304 302 301 300 301 303 303 304 305 306 304 310 314 317 310 304 314 313 315 317 320 321 321 320 314 312 312 314 324 317 310 308 319 317 318 321 315 319 319 320 321 320 319 319 322 322
308 308 307 307 306 306 305 304 303 302 301 301 302 303 303 303 304 304 304 308 306 318 307 301 303 313 315 314 317 318 321 315 313 311 310 311 313 314 309 306 316 316 315 316 317 317 314 316 314 316 318 322 321 321
307 307 307 307 306 305 305 304 303 302 301 301 303 303 303 304 303 304 310 305 306 311 308 301 303 309 315 308 309 316 313 314 313 311 311 309 310 312 304 312 312 313 313 313 314 315 316 317 317 317 320 323 319 318
307 307 307 306 306 305 304 304 303 302 302 303 303 303 305 302 300 308 311 308 315 313 304 301 300 301 313 310 311 312 312 307 313 307 307 308 305 302 308 312 310 310 310 310 311 311 312 313 314 316 320 320 317 317
305 306 306 305 305 305 304 304 304 303 303 304 302 301 298 302 310 310 310 306 305 306 309 304 305 304 310 307 306 308 310 304 302 306 309 305 304 313 314 312 312 312 311 311 309 308 310 312 313 314 319 320 318 318
305 305 305 305 305 305 304 304 304 305 304 302 301 302 306 308 306 304 299 300 301 298 302 302 305 304 312 305 306 309 305 305 298 302 303 301 301 310 315 314 313 314 313 312 313 313 314 314 315 315 317 320 320 320
304 305 305 305 305 304 304 304 304 303 302 303 305 307 304 303 300 295 295 297 297 296 302 300 302 306 310 314 308 308 303 305 297 308 302 298 306 314 311 311 312 315 314 314 313 313 314 314 315 317 320 321 321 320
304 305 304 304 304 304 304 305 304 304 305 309 305 297 298 299 291 289 288 293 294 299 302 303 301 305 311 311 308 306 301 299 307 301 299 303 311 311 313 314 314 316 316 315 315 314 314 315 317 317 321 323 322 317
304 304 304 305 305 305 305 305 305 304 303 300 297 287 294 291 294 294 295 297 301 302 303 303 302 303 307 304 304 298 302 303 297 296 297 305 313 315 316 315 314 314 315 314 314 315 315 315 316 320 322 323 320 316
303 304 304 304 304 305 305 305 304 303 301 299 297 288 292 298 299 300 302 303 303 305 303 303 304 304 303 300 302 300 297 294 297 297 303 314 318 317 316 315 315 315 315 315 315 315 315 316 318 321 322 323 320 319
303 303 303 304 304 304 305 304 301 303 303 298 297 295 296 296 297 301 302 302 305 304 304 303 300 298 298 300 297 296 294 294 299 307 313 316 316 316 316 316 315 316 317 316 316 315 315 315 319 323 322 320 318 317
302 299 303 304 304 304 304 302 302 299 297 294 295 299 298 298 298 300 301 302 307 304 298 300 296 295 301 296 295 299 297 302 309 311 314 316 315 315 316 315 315 315 316 318 317 316 316 318 323 320 318 318 319 319
298 302 303 304 303 303 304 303 299 297 292 295 293 296 300 300 300 300 304 306 305 303 302 298 302 297 294 293 295 301 305 310 311 312 313 315 316 315 315 315 315 315 316 317 318 317 317 318 318 317 321 321 318 319
299 301 302 302 303 301 295 298 301 292 293 295 298 300 300 300 303 304 304 305 306 306 304 302 297 296 297 301 301 305 306 306 306 309 312 314 315 314 314 314 314 314 315 316 316 316 316 318 317 317 317 318 316 315
301 301 301 301 301 298 293 296 301 295 293 295 298 298 299 299 302 302 303 303 301 301 298 297 297 299 300 302 305 306 306 308 307 305 305 308 311 312 312 313 312 315 314 314 314 304 313 314 315 316 314 314 312 312
300 299 300 301 301 299 297 296 295 296 297 294 297 297 296 298 297 297 298 301 298 296 295 298 299 301 305 305 306 306 306 307 306 305 305 304 307 307 308 308 310 310 309 309 308 308 308 311 313 314 314 313 313 311
300 301 299 299 295 296 296 299 296 298 296 296 295 295 293 292 293 296 300 297 296 297 299 299 300 301 302 303 304 306 306 306 306 304 300 302 304 304 305 306 305 304 306 306 306 306 307 311 313 313 312 312 309 311
300 301 299 298 293 293 291 300 293 294 290 292 295 292 292 293 296 300 294 296 298 301 302 302 303 303 304 304 305 305 305 304 302 303 304 303 304 305 305 305 306 305 304 305 307 307 308 305 305 309 309 309 310 310
297 297 294 293 292 289 296 293 296 293 294 292 291 290 291 294 298 294 291 295 298 301 301 302 302 300 301 302 300 301 303 304 303 304 304 303 303 303 304 304 304 305 306 306 306 307 308 307 303 307 308 307 308 307
291 290 291 285 294 290 289 289 290 290 288 291 290 291 293 296 291 290 291 296 299 298 300 301 301 300 298 298 300 301 304 302 300 300 303 304 303 304 304 304 305 306 307 306 306 305 306 306 305 306 306 306 306 306
284 291 288 290 291 290 291 287 289 290 291 290 291 296 297 294 289 289 292 296 298 298 299 298 298 298 298 299 298 299 301 302 301 299 301 302 302 301 300 300 301 303 308 307 306 305 305 305 305 305 304 304 294 301
286 289 294 298 296 295 293 294 295 294 290 289 293 293 293 288 288 290 295 297 297 298 298 298 296 295 295 297 298 299 299 298 296 296 298 299 300 301 300 299 300 303 307 306 306 305 304 304 304 305 305 305 306 306
293 294 290 294 294 296 292 293 291 290 291 294 295 288 288 288 287 293 295 299 298 297 296 296 297 296 294 293 294 294 294 295 296 296 297 297 298 298 298 298 300 294 301 303 303 304 304 304 304 305 305 305 306 307
293 296 296 292 293 292 291 291 291 294 294 294 291 290 290 294 296 298 298 298 298 296 294 293 294 297 295 296 296 296 296 295 293 291 290 290 292 294 299 299 299 299 300 302 295 295 302 302 303 303 304 305 305 307
294 298 294 292 290 290 294 298 296 298 299 297 297 295 294 294 296 300 300 298 296 295 295 296 297 296 295 294 292 293 295 294 294 292 289 289 290 294 295 296 296 297 298 298 298 298 293 293 298 302 301 303 303 305
297 296 292 293 291 295 298 300 300 299 298 296 296 294 292 294 298 300 299 299 298 297 297 295 296 298 297 294 292 291 290 294 295 295 294 294 294 295 297 297 298 297 297 297 296 296 296 298 299 300 302 301 303 301
294 294 293 291 293 298 300 298 296 294 294 296 294 295 295 294 291 297 299 299 297 295 291 293 295 295 298 298 296 296 290 294 295 295 295 296 296 296 297 300 301 300 298 297 296 296 295 296 299 299 301 302 302 302
295 296 296 294 294 294 297 295 294 292 294 293 292 293 294 293 287 295 301 301 298 296 295 295 296 297 298 300 298 297 292 296 294 289 288 288 288 290 294 300 302 303 301 298 297 296 296 297 298 299 300 302 302 303
Wind_Speed
16 15 15 17 18 17 15 13 10 5 1 4 8 10 13 15 17 10 5 3 5 6 8 10 9 11 14 8 8 6 4 4 5 7 8 8 9 5 4 7 3 7 6 5 10 1 4 5 5 6 4 5 3 4
16 16 17 18 18 19 17 14 11 6 2 3 6 7 10 13 15 13 5 3 3 5 6 8 7 6 5 7 6 6 3 5 7 4 4 6 4 3 7 4 4 3 2 4 2 4 3 4 8 5 4 5 5 5
16 18 18 19 20 20 18 15 12 8 5 1 3 6 8 11 13 10 6 6 5 4 6 9 6 7 3 2 5 5 5 7 3 4 5 5 7 4 3 6 5 7 8 2 6 6 4 5 1 1 2 1 6 5
16 17 18 20 21 19 17 15 12 9 6 3 1 4 7 9 12 11 6 6 4 5 5 3 7 6 3 3 3 2 4 6 6 6 7 7 8 7 8 10 7 4 4 2 3 7 7 4 5 8 7 6 1 3
16 18 20 21 21 20 18 15 13 11 7 4 2 4 6 9 11 8 7 7 3 5 6 3 2 8 8 5 6 4 3 4 6 6 6 7 9 7 8 8 7 4 6 4 3 8 4 4 4 7 3 3 4 5
17 20 21 22 21 18 17 14 12 10 7 4 4 3 5 8 10 6 4 6 4 2 5 4 5 4 5 8 9 6 5 4 6 8 5 7 3 2 5 9 10 7 4 4 3 6 3 6 5 4 3 5 4 5
19 20 21 22 21 19 17 15 13 10 7 5 5 4 5 8 6 4 5 5 10 6 4 4 4 6 6 8 9 6 5 5 5 7 8 9 6 3 5 11 13 14 10 6 4 3 5 7 6 6 5 7 8 7
19 21 21 20 19 18 17 15 13 11 8 6 5 5 6 9 12 6 3 8 5 5 4 4 2 5 6 6 7 7 7 6 5 5 8 6 6 5 7 8 11 14 13 12 8 5 6 7 6 5 5 9 6 6
18 20 20 19 18 17 16 14 13 10 9 7 5 5 4 4 5 4 8 6 3 5 4 5 7 5 7 7 6 6 3 5 5 8 9 7 8 7 7 11 11 9 8 7 4 6 9 10 8 7 9 9 9 8
16 19 21 20 18 17 16 14 12 11 8 5 5 5 5 4 12 6 3 5 5 4 5 6 9 3 8 8 7 5 5 7 5 7 6 10 11 11 11 8 5 8 6 6 6 6 9 9 9 9 12 11 9 7
17 21 19 18 17 16 16 14 12 11 7 5 6 1 7 3 5 4 5 6 7 6 6 8 11 4 4 7 6 5 5 4 6 6 7 5 8 12 16 14 11 9 9 7 7 7 8 8 9 8 10 10 7 11
16 18 18 17 16 16 15 14 15 12 4 5 4 8 5 5 6 6 5 5 7 9 6 11 11 9 5 2 5 7 3 4 5 2 5 7 9 9 6 11 11 8 8 10 12 10 9 11 8 8 8 9 10 10
18 17 16 16 16 15 14 14 16 8 13 5 5 6 4 4 3 7 8 7 6 4 7 9 11 8 4 4 4 3 6 6 3 5 7 6 2 2 6 5 3 3 7 9 10 10 10 10 9 9 10 11 12 10
15 14 15 15 15 14 13 13 11 9 6 5 6 2 5 5 8 6 8 9 6 7 7 8 9 7 4 7 5 4 5 4 8 7 10 8 8 10 5 2 2 6 5 8 8 7 8 9 8 10 11 11 11 10
13 13 13 15 15 14 12 8 6 4 4 5 5 5 8 8 7 10 7 2 6 6 7 6 5 5 8 4 4 4 5 6 4 8 9 8 9 6 5 2 3 6 5 5 6 6 6 5 7 9 9 10 9 8
13 13 7 14 14 13 12 8 4 3 5 4 3 6 6 7 4 1 2 5 3 6 5 7 4 4 6 4 7 8 5 4 4 6 9 8 6 5 3 2 3 5 8 5 5 5 5 7 8 11 10 9 9 9
9 3 8 12 14 14 12 5 5 6 5 4 4 7 7 5 5 6 6 6 5 7 8 5 6 7 4 7 10 5 11 3 7 8 8 6 5 4 3 2 2 4 5 6 4 4 3 3 9 9 9 8 8 7
3 8 12 12 11 9 5 4 4 3 4 5 7 4 3 4 2 5 3 6 3 4 7 7 3 6 5 6 5 4 4 7 6 6 6 6 4 4 5 5 4 4 3 4 3 3 3 4 6 6 7 8 7 5
9 8 10 5 2 3 4 5 2 4 7 5 2 2 4 2 3 4 2 3 2 6 5 2 4 6 7 4 7 7 6 6 4 3 7 3 3 4 3 2 4 3 4 5 5 3 4 5 4 5 8 8 6 6
12 9 6 3 3 2 4 3 1 5 4 4 6 3 4 3 3 3 3 2 4 4 4 4 6 4 3 6 7 5 7 6 6 4 3 1 3 3 5 5 6 6 3 4 4 3 7 6 6 5 3 5 1 2
6 4 5 5 1 3 3 5 6 3 2 3 6 7 5 6 6 5 6 5 6 6 7 6 7 6 8 7 3 6 4 3 6 6 7 6 4 6 8 7 7 8 7 8 8 5 4 6 2 4 1 1 3 3
5 10 3 2 3 4 3 4 2 2 4 1 4 6 4 6 6 7 6 6 6 6 7 8 7 7 6 4 4 7 6 8 7 7 9 9 9 8 10 10 10 10 11 9 9 10 7 5 7 7 4 5 4 5
6 4 4 6 4 5 4 5 4 5 3 3 5 5 5 5 6 6 4 7 7 7 6 5 3 1 5 6 7 7 8 9 8 10 10 9 10 10 10 9 11 11 11 10 9 9 8 4 5 8 7 7 11 9
4 4 5 5 6 4 7 7 6 6 6 7 7 7 9 6 6 6 6 7 3 5 5 5 5 5 6 9 8 7 6 6 8 8 8 9 9 10 11 10 11 11 9 10 10 8 8 8 7 8 11 10 8 6
2 4 3 4 6 6 6 6 6 5 6 7 9 5 5 5 6 6 7 4 4 6 7 5 5 4 5 6 7 6 7 5 6 9 9 8 11 10 10 11 10 11 10 10 9 10 10 10 10 9 11 12 11 14
2 6 3 3 2 1 2 4 5 5 4 5 3 3 4 2 0 3 3 2 5 5 5 4 5 6 7 6 7 8 9 10 9 10 10 11 13 13 13 15 12 12 11 10 9 13 13 10 10 13 13 15 9 10
4 4 5 7 7 8 4 5 4 3 0 1 2 2 2 4 3 3 3 4 4 5 4 4 5 5 6 8 8 9 9 9 7 9 11 11 11 12 12 14 16 14 14 17 15 12 12 13 13 16 14 8 12 14
3 5 2 5 4 7 5 5 5 5 4 4 3 2 3 4 2 2 2 1 3 3 3 4 4 4 5 6 7 7 8 7 9 10 9 10 11 10 12 11 13 19 16 17 17 16 15 15 15 15 16 13 10 11
1 5 4 2 4 4 3 2 3 2 0 2 1 2 2 3 2 2 1 2 2 2 4 5 5 4 5 5 6 6 6 6 8 14 18 13 11 9 9 10 10 10 11 13 13 12 18 17 17 16 17 9 9 12
4 4 1 4 3 2 2 2 5 4 3 3 3 2 2 2 1 3 2 2 2 3 4 5 6 5 5 4 7 8 7 7 7 8 10 12 13 12 11 11 11 11 10 11 11 12 11 9 11 12 14 13 12 12
1 2 2 3 1 3 4 4 4 6 4 2 4 3 1 2 3 5 4 1 2 4 5 6 6 4 3 4 5 7 9 6 9 13 13 11 12 12 12 11 10 10 10 12 13 12 11 11 9 12 17 17 19 15
3 5 3 4 4 4 4 3 3 2 1 2 2 3 2 1 1 2 3 2 4 5 5 6 7 7 5 3 4 5 7 10 11 11 15 10 10 12 12 10 9 9 10 11 12 11 12 15 9 9 13 16 17 18
4 4 2 2 4 6 4 3 1 2 3 3 2 2 1 1 1 2 2 1 2 4 5 6 7 7 9 7 4 5 8 9 13 13 12 12 13 12 10 8 7 7 6 6 6 7 10 9 8 12 15 16 14 12
Wind_Direction
197 201 197 182 176 166 164 168 169 163 94 29 39 17 358 354 354 346 313 19 326 315 43 359 10 9 349 345 352 19 129 185 235 239 252 239 253 356 346 310 178 170 131 189 242 130 49 224 351 20 39 327 340 27
197 197 185 176 173 163 161 165 170 173 190 24 26 12 352 347 348 342 270 105 340 271 0 328 317 313 333 1 346 311 2 8 15 279 245 285 277 178 180 244 46 253 22 327 35 36 52 4 74 87 50 318 29 46
188 189 171 170 168 164 164 164 171 171 181 142 29 355 340 341 344 348 307 324 290 272 277 237 262 152 286 317 36 313 50 351 57 352 322 320 321 334 237 281 360 299 147 333 356 358 333 356 33 332 136 10 58 82
185 178 168 169 166 163 162 163 171 176 184 167 44 321 329 333 334 333 301 353 293 296 279 143 134 178 140 307 266 286 333 321 288 274 295 289 295 317 301 305 316 31 129 231 254 261 269 302 57 69 100 91 53 96
183 176 169 169 166 165 163 166 175 183 178 168 241 293 318 328 329 300 274 281 273 312 328 352 183 222 174 233 239 228 269 291 279 275 252 265 269 316 290 288 277 316 29 327 310 56 0 348 69 129 159 175 220 152
181 170 164 162 163 163 165 169 173 181 174 182 240 279 311 327 333 275 221 190 246 234 286 266 110 152 207 228 234 211 232 242 250 266 270 270 87 295 277 267 281 274 310 21 330 13 25 310 326 343 291 274 175 116
161 161 160 163 164 163 164 167 175 178 180 198 238 280 309 320 297 291 355 355 329 305 247 255 237 159 208 200 221 217 199 258 250 258 255 271 277 234 264 263 289 300 306 289 236 259 268 273 266 263 225 119 104 106
165 165 165 165 164 163 165 170 173 179 181 204 239 260 283 295 277 264 167 214 299 263 255 259 234 179 190 203 215 206 223 206 221 244 259 255 266 222 250 259 268 268 273 277 263 184 255 252 243 230 153 121 155 165
166 167 162 160 161 161 165 170 174 169 181 208 226 268 250 227 221 94 132 149 222 294 273 226 245 189 170 228 212 165 239 236 215 225 229 248 225 231 237 233 259 257 246 257 259 244 226 224 237 194 173 161 198 200
171 167 159 157 161 162 167 172 169 171 183 186 230 216 188 137 122 150 157 171 198 239 223 263 248 228 182 198 195 178 180 239 232 210 231 235 241 253 242 226 262 285 196 205 239 228 231 223 227 208 185 187 204 196
144 147 153 156 159 164 172 171 170 148 172 212 207 230 86 125 185 227 195 207 187 214 206 230 252 229 215 202 187 219 181 237 229 226 197 218 235 231 225 240 231 219 255 243 233 245 267 252 232 224 203 187 155 119
153 157 152 155 160 167 168 163 168 196 189 314 314 99 148 201 210 196 215 207 215 212 189 202 208 230 151 295 250 177 244 237 249 149 189 245 257 275 173 205 224 225 239 252 244 231 238 257 239 241 197 141 128 122
150 149 153 156 159 160 163 170 189 261 309 235 224 167 192 179 156 204 198 198 196 211 155 186 192 192 80 228 251 161 213 248 225 207 232 241 336 74 133 155 165 212 244 254 249 233 236 237 213 223 142 132 133 142
142 152 155 152 155 156 164 181 204 250 278 228 171 360 197 204 214 206 215 211 209 189 166 201 177 199 184 188 233 215 238 266 245 207 232 250 218 124 110 100 292 273 256 254 230 224 229 222 209 134 135 141 145 168
130 144 149 159 155 156 164 168 164 223 281 257 174 209 207 230 220 212 222 93 127 162 169 197 165 199 205 199 223 216 226 223 215 238 239 76 66 80 79 62 314 290 294 243 236 213 235 227 165 142 144 142 165 166
119 120 137 144 152 150 144 156 162 246 248 233 244 262 203 222 186 231 122 142 147 162 176 204 157 201 219 212 211 208 229 228 242 62 90 90 67 53 24 2 320 294 305 276 259 248 232 255 163 142 147 158 183 182
70 91 144 134 142 154 182 197 189 237 249 225 235 255 264 222 180 176 202 198 163 214 196 196 197 194 229 216 233 227 234 311 49 85 79 54 35 21 1 344 246 267 282 287 297 283 259 235 122 144 156 175 195 173
89 138 136 143 158 159 164 211 246 260 243 244 243 211 293 350 321 167 91 89 190 251 231 199 229 247 234 243 238 241 338 94 84 58 62 73 39 4 33 12 355 328 281 285 268 267 243 171 170 187 167 183 186 207
133 118 94 110 207 219 168 156 231 246 222 229 241 249 283 200 52 319 210 149 242 343 304 223 213 240 249 289 341 29 10 3 329 135 105 91 322 342 356 5 338 342 5 357 348 305 274 218 239 208 195 179 191 217
90 80 52 3 314 210 166 158 135 260 246 205 219 220 234 237 189 215 176 211 206 222 239 233 222 252 316 32 5 353 5 344 335 310 291 3 8 314 281 299 311 351 255 225 225 244 281 253 211 254 338 61 105 253
112 152 201 267 165 269 236 212 189 210 201 245 212 208 217 229 217 222 230 230 237 247 246 242 252 285 337 352 354 335 317 331 320 334 324 314 19 329 304 295 250 249 252 268 277 314 257 278 214 63 136 259 301 329
125 173 105 28 267 258 256 281 221 190 213 281 237 197 212 212 220 222 231 232 232 239 245 262 268 292 293 314 314 301 324 329 302 280 257 264 265 266 268 280 284 285 291 286 293 289 276 208 265 263 259 237 222 248
163 165 231 195 222 182 226 188 188 213 189 220 198 192 210 205 203 200 209 221 226 225 232 234 247 229 275 277 270 266 271 277 276 275 278 279 279 285 285 275 276 278 280 281 282 284 296 238 154 252 236 241 260 259
178 210 226 215 189 225 154 192 197 183 203 184 191 206 190 192 176 195 220 216 149 127 205 137 224 264 271 254 260 287 296 314 292 281 294 303 289 278 279 275 272 267 268 277 280 279 275 268 218 248 262 259 242 205
228 269 168 264 229 191 191 182 194 202 190 188 203 196 158 170 192 213 204 93 114 63 54 28 348 322 316 318 320 319 328 336 338 319 304 294 290 289 301 307 305 291 276 270 264 265 273 275 259 244 240 247 230 256
247 203 170 220 169 198 240 213 209 205 235 224 164 170 218 166 22 77 47 83 89 70 44 8 329 320 302 307 322 316 329 337 331 304 298 304 308 316 311 302 288 281 293 295 286 282 270 272 278 277 256 245 251 262
270 221 194 172 212 204 200 200 230 177 345 78 66 345 200 203 96 84 105 22 50 34 7 350 330 308 303 310 317 317 321 324 304 292 301 300 298 295 292 287 282 289 304 305 308 309 293 269 271 281 267 266 292 267
311 48 329 9 23 29 19 18 26 36 32 9 330 19 33 37 86 67 83 30 26 3 331 304 297 296 285 281 284 288 289 288 286 283 276 271 267 269 269 269 271 284 289 288 287 288 288 289 284 276 272 269 246 261
275 33 32 339 72 70 44 49 77 94 99 335 343 51 83 45 26 120 154 78 72 289 302 310 307 303 289 277 272 264 263 269 279 283 284 285 289 277 273 269 265 266 274 278 270 264 270 265 267 268 276 300 322 302
49 37 120 68 62 91 130 43 91 94 93 54 62 112 121 131 214 267 286 263 341 318 318 302 289 272 274 326 325 308 300 289 281 283 294 294 288 288 280 272 267 264 267 269 271 283 291 240 249 263 262 257 254 256
336 347 71 65 70 99 139 141 118 88 62 31 80 92 120 192 187 206 238 280 320 295 280 308 317 321 345 317 303 301 301 295 290 289 283 282 282 285 280 268 260 253 250 247 245 247 250 255 222 240 248 236 234 242
205 228 190 153 165 155 155 190 134 94 121 263 143 111 134 231 246 197 192 216 274 325 342 323 323 326 319 276 264 272 271 294 302 301 302 296 299 292 288 279 263 252 241 240 239 228 228 240 224 233 252 258 234 234
213 216 181 173 156 174 143 144 146 137 209 197 140 160 211 68 208 274 200 186 345 319 334 335 327 331 329 314 245 283 295 294 291 288 286 285 285 297 301 281 279 284 235 227 205 209 226 231 228 226 232 252 263 260